OneWeb SL0520

operational
NORAD ID: 54138 Int'l Des: 2022-138 Owner: ONEWEBN Country: UK Constellation: oneweb
LEOCIRCULARPOLARONEWEB_TYPE

关于 OneWeb SL0520

正在加载描述...

实时位置

正在加载3D地球...

即将过境

高度历史

Altitude vs Time

uPlot chart will show altitude changes over time

两行轨道根数

1 54138U 22138AB 26062.28960021 .00000063 00000-0 12588-3 0 9997
2 54138 87.9243 326.0583 0001661 88.7322 271.4001 13.19725691162858
Epoch: Mar 3, 2026 • Age: 22 hours

当前状态

高度 1196.1 km
速度 7.26 km/s
星下点 66.06°N, 158.7°W
发射日期 Oct 22, 2022
运行时间 3.3 years
类型 internet

技术详情

分类 Payload
质量 148.00 kg
干质量 140.00 kg
总质量 148.00 kg
长度 1.30 m
直径 1.00 m
跨度 5.00 m
形状 Trapezoid+2 pan
制造商 ONEWUS
平台类型 ARROW
阶段状态 In Orbit
所有者/国家 ONEWEBN/UK

大型星座

Loading constellations...